Regional Weather Roundup
Issued by NWS

Home | Current Version | Previous Version | Graphics & Text | Print | Product List | Glossary On
Versions: 1 2 3 4 5 6 7 8 9 10 11 12 13 14 15 16 17 18 19 20 21 22 23 24 25 26 27 28 29 30 31 32 33 34 35 36 37 38 39 40 41 42 43 44 45 46 47 48 49 50
000
ASUS43 KDMX 301608
RWRIA

WEATHER ROUNDUP FOR IOWA
NATIONAL WEATHER SERVICE DES MOINES IA
1100 AM CDT TUE AUG 30 2016

NOTE: "FAIR" INDICATES FEW OR NO CLOUDS BELOW 12,000 FEET WITH NO
SIGNIFICANT WEATHER AND/OR OBSTRUCTIONS TO VISIBILITY.

* - THESE STATIONS ARE NOT NWS STATIONS...THUS NOT UNDER NWS
QUALITY CONTROL.  THEY ALSO DO NOT REPORT WEATHER SUCH
AS PRECIPITATION OR FOG.

IAZ001>003-012>014-020>022-031>034-043>046-301700-
   NORTHWEST IOWA

CITY           SKY/WX    TMP DP  RH WIND       PRES   REMARKS
CARROLL *      CLOUDY    70  68  94 SW10      30.17F
CHEROKEE *     MOSUNNY   70  68  93 CALM      30.20S
DENISON *      PTSUNNY   70  68  94 SW8       30.16F
LE MARS *      CLOUDY    73  68  83 SW7       30.21S
ORANGE CITY *  CLOUDY    72  68  88 CALM      30.22R
SHELDON *      MOSUNNY   75  70  83 S6        30.20S
SIOUX CITY     CLOUDY    72  68  87 S6        30.21S
SPENCER        PTSUNNY   73  67  81 W8        30.21S
STORM LAKE *     N/A     72  68  88 NW8       30.21R
$$

IAZ055>058-069>071-079>083-090>094-301700-
   SOUTHWEST IOWA

CITY           SKY/WX    TMP DP  RH WIND       PRES   REMARKS
ATLANTIC *     PTSUNNY   73  68  83 NE6       30.22S
AUDUBON *      PTSUNNY   73  66  78 CALM      30.22F
CLARINDA *       N/A     72  72 100 MISG      30.23S FOG
COUNCIL BLFS * CLOUDY    73  68  83 NE6       30.23R
CRESTON *      CLOUDY    75  68  78 NE7       30.23S
HARLAN  *      CLOUDY    73  68  83 NE3       30.25F
LAMONI         CLOUDY    74  71  91 CALM      30.19S
RED OAK *      PTSUNNY   73  72  94 NE6       30.22S
SHENANDOAH *   CLOUDY    72 -36   1 CALM      30.22R
$$

IAZ047>049-059>061-072>074-084-301700-
   CENTRAL IOWA

CITY           SKY/WX    TMP DP  RH WIND       PRES   REMARKS
AMES           CLOUDY    75  73  93 S6        30.16F
ANKENY *         N/A    N/A N/A N/A MISG        N/A
BOONE *        PTSUNNY   73  70  88 NE6       30.18R
CHARITON *       N/A     75  72  88 MISG      30.19S
DES MOINES     CLOUDY    77  70  79 SW3       30.17F
GRINNELL*      LGT RAIN  73  69  87 SW3       30.18S
KNOXVILLE *    MOSUNNY   75  70  83 VRB5      30.16F
MARSHALLTOWN   LGT RAIN  74  71  91 S10       30.14F
NEWTON *       MOSUNNY   73  73 100 CALM      30.17S
PERRY *        LGT RAIN  73  71  95 W7        30.19F
$$

IAZ004>006-015-016-023>025-035-036-301700-
   NORTH CENTRAL IOWA

CITY           SKY/WX    TMP DP  RH WIND       PRES   REMARKS
ALGONA *       CLOUDY    72  70  94 N9        30.22R
ESTHERVILLE    CLOUDY    70  67  90 N8        30.23R
FORT DODGE *   CLOUDY    72  68  88 SW7       30.19R
MASON CITY     CLOUDY    73  69  87 N12       30.22R
FOREST CITY *  PTSUNNY   72  68  88 N10       30.21S
WEBSTER CITY * CLOUDY    73  72  94 SW5       30.15S
IOWA FALLS *     N/A     75  70  86 SW6       30.19R
$$

IAZ007>011-017>019-026>030-037>042-050>054-066-301700-
   NORTHEAST IOWA

CITY           SKY/WX    TMP DP  RH WIND       PRES   REMARKS
CEDAR RAPIDS   MOSUNNY   77  73  87 S6        30.15S
CHARLES CITY * PTSUNNY   72  72 100 NW6       30.19F
CLINTON *      PTSUNNY   77  71  82 S6        30.15R
DECORAH *      PTSUNNY   73  70  88 N7        30.18R
DUBUQUE        MOSUNNY   77  71  82 SW7       30.16R
MONTICELLO *   CLOUDY    77  72  83 CALM      30.15R
OELWEIN *      PTSUNNY   75  70  83 CALM      30.18R
WATERLOO       CLOUDY    76  68  76 W5        30.16R
$$

IAZ064-065-067-068-078-301700-
   EAST CENTRAL IOWA

CITY           SKY/WX    TMP DP  RH WIND       PRES   REMARKS
DAVENPORT      MOSUNNY   75  70  84 SW6       30.16R
IOWA CITY      CLOUDY    76  72  87 VRB3      30.16S
MT. PLEASANT * CLOUDY    79  75  89 SW3       30.17R HX  82
QUAD CITIES    CLOUDY    76  70  82 SW3       30.14S
$$

IAZ062-063-075>077-085>089-095>099-301700-
   SOUTHEAST IOWA

CITY           SKY/WX    TMP DP  RH WIND       PRES   REMARKS
BURLINGTON     PTSUNNY   77  72  84 SE5       30.15S
FAIRFIELD *    CLOUDY    75  70  83 SW5       30.17R
FORT MADISON * CLOUDY    77  72  83 S6        30.16S
KEOKUK *       CLOUDY    75  72  88 CALM      30.15F
OSKALOOSA *    LGT RAIN  71  70  97 NW3       30.17F
CENTERVILLE *    N/A     75  72  88 CALM      30.19S
OTTUMWA        PTSUNNY   72  70  93 W3        30.17R
WASHINGTON *   CLOUDY    75  72  88 CALM      30.17S
$$

ABBREVIATIONS USED IN REMARKS
   TC - TEMPERATURES IN CELSIUS
  WCI - WIND CHILL INDEX
   HX - HEAT INDEX
  VSB - VISIBILITY
$$





USA.gov is the U.S. government's official web portal to all federal, state and local government web resources and services.